Tracking 20093 objects as of 16-Dec-2019
HD Live streaming from Space Station
objects crossing your sky now

FENGYUN 1C DEB

Track FENGYUN 1C DEB now!
10-day predictions


NORAD ID: 37418
Int'l Code: 1999-025EGL
Perigee: 853.1 km
Apogee: 2,606.6 km
Inclination: 98.6 °
Period: 120.9 minutes
Semi major axis: 8100 km
RCS: 0.0014 m2 (small)
Launch date: May 10, 1999
Source: People's Republic of China (PRC)
Launch site: Taiyaun Space Center, China (TSC)

Note: This is SATELLITE DEBRIS
aabbcc
Your satellite tracking list
Your tracking list is empty




NASA's NSSDC Master Catalog

Two Line Element Set (TLE):
1 37418U 99025EGL 19348.95636540 -.00000320  00000-0 -75042-3 0  9999
2 37418  98.6167 227.3633 1082301 304.3403  45.9792 11.90715382445118
Source of the keplerian elements: AFSPC